CAPE
798 915 1030 1116 1190 1185 1214 1244 1266 1538 1748 1734 1857 2081 2155 2133 2091 2043 2046 2063 2090 2159 2208 2220 2204 2134 2039 2380 2414 2573 2751 2788 2661 1956 2097 2374 2562 2778 2852 2800 2764 2756 2803 3093 3156 2936 2874 2674 2356 2149 1931 1748 1492 1345 1456 1676 1581 1487 1443 1395 1262 1384 2147 2055 1791 1624 1660 1678 1540 1728 1791 1996 1589 1516 1368 1433 1597 1787 1865 1898 2114 2090 1658 1110 900
827 859 978 1082 1173 1231 1226 1239 1248 1336 1571 1723 1711 1719 1855 2039 2187 2280 2293 2263 2030 1964 1988 1982 1992 1969 1770 1700 1918 2210 2252 2352 2150 1860 1872 2110 2014 2286 2721 2733 2811 2780 2850 2885 2763 2674 2508 2268 2082 1845 1823 1600 1741 1686 1796 1816 1494 1408 1283 1225 1155 1102 1555 2372 2322 2170 1959 1634 1455 1518 1522 1950 1615 1644 1654 1694 1748 1934 2086 2179 2321 2265 2207 1452 846
882 868 922 1024 1122 1214 1256 1268 1286 1274 1340 1489 1609 1616 1625 1732 1910 2088 2134 2026 1821 1831 1860 1862 1656 1295 1060 1114 1150 1328 1613 1770 1692 1747 1745 1593 1580 1806 2195 2814 2816 2790 2655 2443 2325 2069 1820 1777 1882 1757 1994 2094 2006 1766 1863 1715 1524 1496 1606 1617 1450 1319 1258 1630 1976 1616 1425 1565 1555 1514 1533 1666 1742 1776 1843 1886 1861 1951 2218 2380 2368 2359 2286 1812 891
1004 950 921 986 1046 1125 1212 1263 1302 1299 1248 1274 1360 1447 1461 1465 1559 1668 1679 1602 1542 1550 1583 1674 1476 1259 1148 1076 1024 1085 1233 1359 1409 1478 1545 1416 1535 1670 2010 2384 2441 2380 2452 2462 2129 1799 1634 1812 1836 1608 1601 1616 1696 1827 1553 1640 1823 1825 1950 2022 1804 1749 1722 1601 1601 1662 1703 1652 1640 1624 1723 1739 1824 1881 1997 1992 1989 2059 2204 2373 2444 2365 2142 1736 980
1146 1144 1053 1047 1077 1094 1145 1207 1268 1312 1313 1254 1256 1286 1324 1371 1430 1496 1523 1512 1454 1328 1425 1474 1346 1284 1140 861 769 842 914 1024 1110 1169 1328 1436 1350 1489 1992 2273 2396 2156 2245 2308 2449 1826 1941 1920 1730 1625 1634 1747 1887 1748 1666 1757 1955 1987 2184 2184 2190 2350 2274 2062 1928 1917 1886 1840 1863 1968 2011 1945 1976 1998 2113 2071 2089 2079 2131 2240 2265 2154 1988 1520 960
1167 1314 1254 1182 1178 1170 1158 1169 1202 1258 1301 1316 1305 1298 1307 1294 1334 1365 1190 1287 1327 1353 1432 1457 1392 1207 1009 920 858 822 757 711 868 1022 1041 988 1049 1349 1756 2305 2297 1893 1787 1958 1925 2244 2070 2027 1813 1712 1832 1820 1726 1731 1750 1877 1941 2253 2318 2488 2468 2272 2126 2244 2321 2220 2096 2105 2119 2130 2070 2055 2079 2112 2130 2157 2025 1985 2048 2104 1987 1862 1719 1538 1353
1171 1354 1396 1340 1288 1278 1242 1200 1212 1238 1268 1304 1322 1338 1348 1325 1289 1282 1312 1364 1347 1364 1374 1364 1328 1272 1157 938 802 695 711 866 1054 1040 980 970 953 1133 1421 1603 1590 1546 1536 1558 1761 1996 2271 2193 2020 2007 2023 1978 1823 1829 1909 1983 2536 2512 2381 2233 1971 1635 1574 1722 1805 1911 2017 2024 2007 1985 1995 2022 1978 1994 2029 1950 1831 1784 1834 1755 1708 1730 1819 1755 1616
1196 1348 1440 1436 1407 1396 1362 1323 1303 1301 1312 1333 1334 1312 1292 1275 1270 1275 1287 1308 1266 1272 1315 1338 1360 1329 1242 1027 893 784 746 900 994 1131 1043 793 765 882 1133 1384 1515 1482 1622 1941 2067 2153 2192 2150 2076 2156 2138 2389 2468 2125 2223 2285 2121 2203 1935 1728 1755 1600 1505 1481 1468 1478 1498 1619 1735 1716 1677 1603 1663 1669 1598 1579 1567 1502 1508 1517 1553 1621 1602 1453 1404
1285 1334 1429 1476 1477 1469 1472 1480 1496 1522 1498 1494 1462 1430 1362 1284 1208 1204 1223 1224 1156 1251 1300 1309 1321 1290 1192 1180 1143 958 922 1007 1134 1112 872 959 854 1149 1388 1538 1687 1813 1684 1729 1988 2155 2207 2036 2038 2069 2867 3520 3423 3087 2720 2308 2203 1901 1283 1246 1457 1208 1206 1409 1403 1419 1515 1573 1504 1519 1570 1606 1574 1466 1373 1325 1322 1272 1131 1137 1133 1106 1053 1046 1122
1379 1354 1391 1444 1484 1490 1512 1530 1579 1606 1578 1526 1465 1463 1444 1442 1338 1245 1207 1180 1208 1254 1292 1302 1290 1186 1208 1208 1130 999 1035 1153 1306 1639 1506 1227 1415 1444 1429 1741 1984 1922 1710 1889 2134 2244 2289 3204 3677 3273 2964 2806 2394 2144 2074 1908 1463 1207 1210 1155 1040 799 598 797 952 973 938 835 1148 1327 1177 1280 1375 1289 1169 1162 947 807 704 669 686 813 901 879 755
1440 1401 1380 1391 1413 1452 1478 1505 1544 1585 1586 1514 1422 1416 1416 1487 1486 1314 1172 1152 1252 1286 1261 1237 1216 1216 1227 1122 1015 978 1151 1257 1234 1352 1583 1666 2097 1710 1697 2012 2133 2009 1842 2087 2283 2296 3021 3009 2773 2716 2466 1994 1657 1421 1320 1334 1377 1289 1136 906 619 506 291 206 184 253 196 290 719 920 639 644 647 543 499 495 436 310 296 467 602 720 823 752 634
1474 1457 1420 1384 1399 1441 1471 1518 1557 1581 1597 1525 1404 1406 1394 1512 1573 1517 1412 1371 1347 1248 1100 1041 1093 1173 1192 1136 1032 1105 1113 1139 1127 1058 1126 1242 1800 2111 1980 2208 2224 2037 2146 2154 2218 2250 2677 2453 2068 1781 1567 1479 1433 1433 1407 1330 1188 1012 709 402 217 62 0 2 11 0 0 30 63 72 65 70 57 38 28 17 23 18 76 220 375 495 457 496 550
1484 1484 1450 1421 1434 1444 1484 1540 1550 1541 1545 1509 1367 1384 1422 1516 1574 1508 1449 1398 1258 1041 807 979 1131 1118 859 863 999 1039 1084 1115 1120 1134 1318 1682 2082 2443 2540 2545 2358 2355 1994 1783 1695 1929 1951 1720 1588 1460 1391 1338 1284 1188 1065 936 681 378 201 90 43 0 0 0 6 0 0 10 2 0 1 3 1 1 3 16 33 10 18 32 46 54 108 154 379
1329 1454 1430 1460 1443 1443 1449 1470 1478 1471 1455 1404 1331 1315 1370 1460 1490 1434 1348 1216 1094 1081 975 1006 970 987 973 892 912 897 1071 1130 1126 1272 1463 1844 2386 2644 2653 2498 2316 1746 1653 1529 1290 1616 1546 1464 1323 1329 1305 1244 1060 775 547 410 290 157 0 0 0 0 0 0 0 0 0 0 0 0 0 0 1 0 0 4 6 10 10 8 4 1 6 26 68
1145 1221 1439 1494 1489 1484 1480 1445 1417 1372 1466 1702 1788 1736 1531 1371 1460 1426 1329 1188 1202 1177 1097 1054 1066 1089 1086 1073 1072 995 924 1042 1076 1250 1419 1643 1938 2203 2262 2155 2104 2041 1678 946 1412 1438 1436 1305 1388 1254 1056 828 639 492 374 186 31 0 0 0 0 0 0 0 0 0 0 0 0 2 4 4 4 4 2 2 8 11 12 12 10 6 18 37 61
887 1028 1228 1426 1495 1546 1540 1485 1410 1404 1679 1982 2184 2207 2062 1834 1759 1614 1464 1378 1308 1224 1193 1176 1204 1241 1214 1206 1162 1123 1112 1097 1094 1124 1313 1513 1636 1754 1715 1360 911 1136 1291 1054 1448 1508 1292 1147 1015 844 745 598 380 192 75 0 0 0 0 0 0 0 0 0 0 0 0 1 2 2 3 2 6 24 34 21 26 14 19 17 12 14 69 76 98
672 645 874 1130 1266 1312 1364 1372 1327 1498 1825 2071 2339 2478 2371 2196 1970 1700 1599 1536 1521 1405 1262 1270 1305 1093 1187 1265 1337 1342 1349 1274 1220 1197 1188 1100 1047 1041 1060 1053 1037 1149 1230 1189 1230 1140 844 704 571 550 423 274 144 64 0 0 0 0 0 0 0 0 0 0 0 0 5 3 1 4 4 6 12 35 48 39 28 34 40 21 26 49 31 14 27
600 506 610 832 1054 1121 1096 1043 1063 1590 1988 2076 2143 2280 2263 2293 2124 1995 1886 1792 1711 1670 1606 1449 1418 1298 1160 1369 1410 1392 1372 1351 1265 1212 1177 1128 1009 900 1133 1101 1080 1115 1138 845 783 831 664 419 426 382 243 142 55 0 0 0 0 0 0 0 0 0 0 0 0 0 2 4 4 6 11 18 18 23 27 32 25 50 47 57 64 65 56 53 70
665 702 735 890 994 1065 914 905 1034 1432 1781 1958 2016 1986 2088 1973 2035 1802 1864 1893 1860 1712 1572 1478 1527 1579 1512 1402 1372 1329 1221 1150 1078 991 972 954 952 902 962 1187 1124 1032 922 777 628 590 432 410 335 184 130 63 4 0 0 0 0 0 0 0 0 0 0 0 1 0 0 0 0 0 0 1 6 18 15 15 30 33 71 90 110 83 74 71 72
661 735 812 928 1047 1002 950 913 1163 1337 1381 1625 1806 1606 1605 2000 2022 1951 1880 1754 1666 1381 1375 1503 1607 1487 1588 1510 1149 1120 1017 906 830 875 802 882 895 583 694 832 924 636 701 655 586 489 285 15 162 103 52 19 14 6 3 0 0 0 0 0 0 0 0 0 23 6 0 0 0 0 0 0 2 1 2 10 17 42 45 55 52 68 84 96 99
634 637 619 676 749 886 1070 1128 1118 1187 1493 1504 1650 1535 1565 1954 2268 2126 2045 1836 1744 1544 1347 1396 1289 1203 1004 844 581 388 411 505 537 612 703 734 830 666 327 330 578 608 547 410 336 207 71 56 76 43 14 10 7 0 0 1 0 0 0 0 0 0 0 0 0 0 0 0 0 0 0 0 0 0 0 0 0 4 7 0 2 15 36 45 40
660 662 640 597 637 681 714 765 908 1008 1345 1614 1586 1628 1647 1733 1749 1730 1598 1542 1488 1396 1328 1279 1152 1011 773 475 211 27 0 6 101 182 360 486 441 450 388 253 186 138 176 253 171 52 0 0 0 6 3 9 3 0 0 0 0 0 1 0 0 0 0 0 0 0 0 0 0 0 0 0 0 0 0 0 0 0 0 0 0 0 0 0 2
669 692 611 644 693 746 744 717 786 1160 1376 1400 1628 1517 1477 1431 1408 1349 1378 1434 1454 1409 1230 980 662 351 164 86 26 1 0 0 0 0 0 0 0 0 3 22 40 17 40 13 0 0 0 4 8 12 12 6 3 1 0 0 0 0 0 0 0 0 0 0 0 0 0 0 0 0 0 0 0 0 0 0 0 0 0 0 0 0 2 1 0
496 637 618 585 676 664 774 815 980 1148 1178 1133 1232 1060 1136 1140 1092 1045 986 989 870 705 417 237 189 130 78 14 0 0 0 0 0 0 0 0 0 0 0 1 2 2 17 0 0 3 14 12 15 13 9 6 5 2 2 1 0 0 0 0 0 0 0 0 0 0 0 0 0 0 0 0 0 0 0 0 0 0 0 0 0 0 5 2 0
573 684 714 557 621 674 735 794 908 974 785 690 654 456 621 639 703 490 444 387 316 234 123 74 44 6 2 0 0 0 0 0 0 0 0 0 0 0 0 6 1 2 8 14 7 2 5 5 5 2 0 0 0 0 0 0 0 0 0 0 0 0 0 0 0 0 0 0 0 0 0 0 0 0 0 0 0 0 0 0 0 0 0 0 0
620 446 412 598 600 700 724 940 934 743 416 178 200 270 245 209 242 178 158 211 194 85 7 2 0 0 0 0 0 0 0 0 0 0 0 0 0 0 0 1 0 0 0 0 0 0 0 0 0 0 0 5 0 0 0 0 0 0 0 0 0 0 0 0 0 0 0 0 0 0 0 0 0 0 0 0 0 0 0 0 0 0 0 0 0
414 571 601 557 495 592 684 562 463 252 183 45 38 67 46 41 46 63 27 12 3 0 0 0 0 0 0 0 0 0 0 0 0 0 0 0 0 0 0 0 0 0 0 0 0 0 0 0 0 1 6 0 0 0 0 0 0 0 0 0 0 0 0 0 0 0 0 0 0 0 0 0 0 0 0 0 0 0 0 0 0 0 0 0 0
541 558 446 300 246 252 293 256 250 171 72 37 42 38 15 18 14 12 9 3 1 0 0 0 0 0 0 0 0 0 0 0 0 0 0 0 0 0 0 0 0 0 0 0 0 0 0 0 0 0 0 0 0 25 11 26 21 13 0 0 0 0 0 0 0 0 0 0 0 0 0 0 0 0 0 0 0 0 0 0 0 0 0 0 0
295 330 357 370 204 434 463 289 237 108 44 20 26 21 6 7 4 2 2 0 0 0 0 0 0 0 0 0 0 0 0 0 0 0 0 0 0 0 0 0 0 0 0 0 0 0 0 0 0 0 0 27 37 56 69 51 20 4 0 0 0 0 0 0 0 0 0 0 0 0 0 0 0 0 0 0 0 0 0 0 0 0 0 0 0
20 25 22 16 10 18 15 12 12 8 24 17 4 1 1 0 0 0 0 0 0 0 0 0 0 0 0 0 0 0 0 0 0 0 0 0 0 0 0 0 0 0 0 0 0 0 0 0 0 0 23 36 65 67 32 14 4 1 1 0 1 0 0 0 0 0 0 0 0 0 0 0 0 0 0 0 0 0 0 0 0 0 0 0 0
0 0 0 5 12 23 23 24 28 30 22 10 4 0 0 0 0 0 0 0 0 0 0 0 0 0 0 0 0 0 0 0 0 0 0 0 0 0 0 0 0 0 0 0 0 0 0 0 22 48 36 28 16 7 0 0 0 1 1 0 0 0 0 0 0 0 0 0 0 0 0 0 0 0 0 0 0 0 0 0 0 0 0 0 0
18 18 27 30 38 44 44 48 45 34 27 20 12 3 2 0 0 0 0 0 0 0 0 0 0 0 0 0 0 0 0 0 0 0 0 0 0 0 0 0 0 0 0 0 0 0 0 0 0 0 0 0 0 0 0 0 0 0 0 0 0 0 0 0 0 0 0 0 0 0 0 0 0 0 0 0 0 0 0 0 0 0 0 0 0
0 0 7 9 6 0 0 0 0 0 0 0 0 0 0 0 0 0 0 0 0 0 0 0 0 0 0 0 0 0 0 0 0 0 0 0 0 0 0 0 0 0 0 0 0 0 0 0 0 0 0 0 0 0 0 0 0 0 0 0 0 0 0 0 0 0 0 0 0 0 0 0 0 0 0 0 0 0 0 0 0 0 0 0 0
0 0 0 0 0 0 0 0 0 0 0 0 0 0 0 0 0 0 0 0 0 0 0 0 0 0 0 0 0 0 0 0 0 0 0 0 0 0 0 0 0 0 0 0 0 0 0 0 0 0 0 0 0 0 0 0 0 0 0 0 0 0 0 0 0 0 0 0 0 0 0 0 0 0 0 0 0 0 0 0 0 0 0 0 0
0 0 0 0 0 0 0 0 0 0 0 0 0 0 0 0 0 0 0 0 0 0 0 0 0 0 0 0 0 0 0 0 0 0 0 0 0 0 0 0 0 0 0 0 0 0 0 0 0 0 0 0 0 0 0 0 0 0 0 0 0 0 0 0 0 0 0 0 0 0 0 0 0 0 0 0 0 0 0 0 0 0 0 0 0
0 0 0 0 0 0 0 0 0 0 0 0 0 0 0 0 0 0 0 0 0 0 0 0 0 0 0 0 0 0 0 0 0 0 0 0 0 0 0 0 0 0 0 0 0 0 0 0 0 0 0 0 0 0 0 0 0 0 0 0 0 0 0 0 0 0 0 0 0 0 0 0 0 0 0 0 0 0 0 0 0 0 0 0 0
0 1 5 0 0 0 0 0 0 0 0 3 0 0 0 0 0 0 0 0 0 0 0 0 0 0 0 0 0 0 0 0 0 0 0 0 0 0 0 0 0 0 0 0 0 0 0 0 0 0 0 0 0 0 0 0 0 0 0 0 0 0 0 0 0 0 0 0 0 0 0 0 0 0 0 0 0 0 0 0 0 0 0 0 0
0 0 0 0 0 0 0 0 0 0 0 0 0 0 0 0 0 0 0 0 0 0 0 0 0 0 0 0 0 0 0 0 0 0 0 0 0 0 0 0 0 0 0 0 0 0 0 0 0 0 0 0 0 0 0 0 0 0 0 0 0 0 0 0 0 0 0 0 0 0 0 0 0 0 0 0 0 0 0 0 0 0 0 0 0
0 0 0 0 0 0 0 0 0 0 0 0 0 0 0 0 0 0 0 0 0 0 0 0 0 0 0 0 0 0 0 0 0 0 0 0 0 0 0 0 0 0 0 0 0 0 0 1 4 5 4 0 2 2 2 2 0 0 0 2 2 4 4 2 0 0 0 0 0 0 0 0 0 0 0 0 0 0 0 0 0 0 0 0 0
0 0 0 0 0 0 0 0 0 0 0 0 0 0 0 0 0 0 0 0 0 0 0 0 0 0 0 0 0 0 0 0 0 0 0 0 0 0 0 0 0 0 0 0 0 0 0 0 0 0 0 1 1 1 0 0 0 0 0 2 0 0 0 0 0 0 0 0 0 0 0 0 0 0 0 0 0 0 0 0 0 0 0 0 0
0 0 0 0 0 0 0 0 0 0 0 0 0 0 0 0 0 0 0 0 0 0 0 0 0 0 0 0 0 0 0 0 0 0 0 0 0 0 0 0 0 0 0 0 0 0 0 0 0 0 0 1 1 1 0 0 0 0 0 0 0 0 0 0 0 0 0 0 0 0 0 0 0 0 0 0 1 0 0 0 0 0 0 0 0
0 0 0 0 0 0 0 0 0 0 0 0 0 0 0 0 0 0 0 0 0 0 0 0 0 0 0 0 0 0 0 0 0 0 0 0 0 0 0 0 0 0 0 0 0 0 0 0 0 0 0 0 0 0 0 0 0 0 0 0 0 0 0 0 0 0 0 0 0 0 0 0 0 0 0 0 0 0 0 0 0 0 0 0 0
0 0 0 0 0 0 0 0 0 0 0 0 0 0 0 0 0 0 0 0 0 0 0 0 0 0 0 0 0 0 0 0 0 0 0 0 0 0 0 0 0 0 0 0 0 0 0 0 0 0 0 0 0 0 0 0 0 0 0 0 0 0 0 0 0 0 0 0 0 0 0 0 0 0 0 0 0 0 0 0 0 0 0 0 0
0 0 0 0 0 0 0 0 0 0 0 0 0 0 0 0 0 0 0 0 0 0 0 0 0 0 0 0 0 0 0 0 0 0 0 0 0 0 0 0 0 0 0 0 0 0 0 0 0 0 0 0 0 0 0 0 0 0 0 0 0 0 0 0 0 0 0 0 0 0 0 0 0 0 0 0 0 0 0 0 0 0 0 0 0
0 0 0 0 0 0 0 0 0 0 0 0 0 0 0 0 0 0 0 0 0 0 0 0 0 0 0 0 0 0 0 0 0 0 0 0 0 0 0 0 0 0 0 0 0 0 0 0 0 0 0 0 0 0 0 0 0 0 0 0 0 0 0 0 0 0 0 0 0 0 0 0 0 0 0 0 0 0 0 0 0 5 0 0 0
0 0 0 0 0 0 0 0 0 0 0 0 0 0 0 0 0 0 0 0 0 0 0 0 0 0 0 0 0 0 0 0 0 0 0 0 0 0 0 0 0 0 0 0 0 0 0 0 0 0 0 0 0 0 0 0 0 0 0 0 0 0 0 0 0 0 0 0 0 0 0 0 0 0 2 2 0 0 0 0 0 0 0 3 5
0 0 0 0 0 0 0 0 0 0 0 0 0 0 0 0 0 0 0 0 0 0 0 0 0 0 0 0 0 0 0 0 0 0 0 0 0 0 0 0 0 0 0 0 0 0 0 0 0 0 0 0 0 0 0 0 0 0 0 0 0 0 0 0 0 0 0 0 0 0 0 0 0 0 0 0 0 0 0 0 0 0 1 10 1
0 0 0 0 0 0 0 0 0 0 0 0 0 0 0 0 0 0 0 0 0 0 0 0 0 0 0 0 0 0 0 0 0 0 0 0 0 0 0 0 0 0 0 0 0 0 0 0 0 0 0 0 0 0 0 0 0 0 0 0 0 0 0 0 0 0 0 0 0 0 0 0 0 0 0 0 0 0 0 0 0 3 9 5 6
0 0 0 0 0 0 0 0 0 0 0 0 0 0 0 0 0 0 0 0 0 0 0 0 0 0 0 0 0 0 0 0 0 0 0 0 0 0 0 0 0 0 0 0 0 0 0 0 0 0 0 0 0 0 0 0 0 0 0 0 0 0 0 0 0 0 0 0 0 0 0 0 0 0 0 0 0 0 0 0 0 16 1 4 6
0 0 0 0 0 0 0 0 0 0 0 0 0 0 0 0 0 0 0 0 0 0 0 0 0 0 0 0 0 0 0 0 0 0 0 0 0 0 0 0 0 0 0 0 0 0 0 0 0 0 0 0 0 0 0 0 0 0 0 0 0 0 0 0 0 0 0 0 0 0 0 0 0 0 0 0 0 1 3 4 4 7 6 2 2
0 0 0 0 0 0 0 0 0 0 0 0 0 0 0 0 0 0 0 0 0 0 0 0 0 0 0 0 0 0 0 0 0 0 0 0 0 0 0 0 0 0 0 0 0 0 0 0 0 0 0 0 0 0 0 0 0 0 0 0 0 0 0 0 0 0 0 0 0 0 0 0 0 0 0 0 0 2 27 18 12 2 5 5 23
Wind_Speed
6 7 9 8 9 9 9 10 10 11 10 9 8 8 8 8 8 8 9 9 9 9 8 9 8 6 5 6 5 5 5 6 11 13 9 8 4 1 2 4 3 2 3 3 4 6 6 5 3 3 6 6 6 6 6 6 7 8 8 9 8 10 13 13 11 7 8 13 13 12 10 12 11 13 9 7 7 9 11 13 12 12 13 14 14
8 8 9 9 7 8 9 10 10 10 9 9 8 8 8 8 8 9 8 9 8 9 8 10 13 16 15 13 11 11 9 9 9 8 7 8 2 3 3 5 5 5 6 5 5 6 7 6 4 5 6 7 8 8 8 8 9 9 10 10 9 10 13 14 13 14 10 11 10 12 12 16 13 15 13 9 7 9 9 11 12 12 11 13 12
10 9 9 9 7 8 8 9 10 9 8 9 8 8 9 8 9 8 8 8 10 9 13 16 11 9 8 8 7 7 8 8 9 7 6 7 4 2 1 6 8 7 7 6 7 8 9 8 7 8 8 8 8 9 10 10 11 11 10 13 12 12 14 16 16 14 13 12 14 13 14 14 14 12 12 12 11 11 10 10 11 11 12 12 11
12 11 10 9 8 8 8 9 8 8 8 8 8 9 9 9 9 8 7 9 8 13 13 10 11 7 9 12 8 5 7 8 9 10 8 6 4 5 4 4 7 8 8 9 9 11 11 10 9 10 11 10 9 10 11 12 13 12 12 12 13 11 13 15 16 16 16 14 14 15 15 13 14 14 13 12 12 10 11 11 12 12 12 11 12
14 13 12 10 9 9 8 9 8 8 8 9 9 9 9 9 9 8 8 8 9 12 9 10 8 9 9 8 6 5 8 11 11 10 10 7 5 7 7 6 7 7 7 10 11 12 12 12 11 12 13 12 11 12 13 13 14 14 13 13 13 13 13 14 15 17 16 15 15 18 18 17 18 15 14 13 12 12 13 13 12 11 12 13 14
14 14 13 12 11 10 10 10 10 9 10 10 10 10 10 10 10 10 10 7 10 9 11 8 7 8 10 11 11 11 12 13 12 12 13 11 8 9 9 10 11 9 5 7 10 12 12 12 12 14 14 13 12 13 15 15 16 17 17 16 16 16 15 16 17 18 19 17 19 17 20 18 17 17 16 16 14 12 11 12 13 13 13 12 13
15 15 14 13 12 11 11 12 13 13 13 13 13 12 11 10 10 10 10 8 10 10 10 8 8 10 10 12 13 13 14 15 14 14 13 13 12 11 10 11 11 10 9 10 12 13 13 13 13 15 14 14 13 14 15 18 19 21 20 19 19 19 19 19 19 19 20 19 20 22 20 22 22 17 18 18 17 18 16 14 13 14 14 13 11
15 15 14 13 13 12 13 15 16 16 17 16 15 13 12 12 12 12 12 9 10 11 11 10 11 12 12 13 13 16 17 17 16 15 15 15 16 15 15 14 13 13 12 13 15 16 15 16 15 16 16 15 16 18 19 21 21 22 20 21 21 22 22 22 22 22 21 22 22 20 22 22 23 24 23 22 19 20 22 20 15 15 13 14 15
15 15 15 13 13 15 17 19 20 20 19 18 16 14 13 13 12 13 12 11 12 12 13 14 15 14 14 14 15 18 18 17 18 18 18 18 19 18 17 16 16 15 15 16 18 18 18 18 19 17 20 23 28 27 26 25 24 24 21 22 22 22 22 23 23 23 23 23 22 24 23 23 24 23 22 23 21 19 19 21 19 18 17 15 15
15 15 14 13 15 18 19 21 21 20 19 17 15 14 13 13 13 13 12 13 14 16 16 16 17 16 16 15 15 16 17 18 18 19 20 21 21 21 20 18 17 17 17 19 21 22 22 23 25 31 32 32 32 31 30 28 27 25 23 22 22 22 23 22 23 23 22 22 23 23 22 23 24 24 22 23 22 21 19 19 17 18 18 17 18
17 16 15 16 18 20 21 21 21 19 18 16 14 14 13 14 14 13 12 15 16 18 19 19 19 18 18 18 18 17 18 19 18 19 19 19 21 22 21 20 21 20 21 23 25 29 29 29 29 30 30 30 29 31 30 30 28 28 28 28 29 28 25 26 25 25 24 23 24 25 25 25 26 25 24 23 23 22 21 19 18 19 19 17 17
18 17 18 20 21 21 21 21 21 19 18 16 15 15 16 16 16 15 15 16 18 20 21 20 20 20 20 21 21 20 21 22 22 21 19 18 19 21 21 21 22 22 23 25 28 30 31 31 29 28 29 30 29 28 28 29 30 30 31 32 36 nan nan nan nan nan nan nan nan nan nan nan nan nan nan nan nan nan nan 22 21 20 19 19 20
21 20 21 23 22 22 23 23 21 20 19 18 17 18 18 19 18 19 17 18 20 20 21 22 21 22 23 23 24 26 27 30 26 23 20 19 18 20 22 22 23 24 26 28 30 32 33 32 31 30 30 34 31 29 29 28 29 32 32 nan nan nan nan nan nan nan nan nan nan nan nan nan nan nan nan nan nan nan nan nan nan nan 22 21 22
26 23 25 26 25 26 25 24 23 22 22 21 20 20 21 20 21 22 22 23 21 21 23 25 26 26 26 28 30 30 29 28 27 25 24 23 21 21 23 26 32 31 29 29 30 31 33 34 34 33 32 32 31 32 31 31 31 31 nan nan nan nan nan nan nan nan nan nan nan nan nan nan nan nan nan nan nan nan nan nan nan nan nan nan nan
28 26 27 29 29 28 26 25 24 25 24 23 23 23 24 25 27 29 30 30 30 31 33 34 33 34 33 33 32 32 29 31 29 27 25 24 23 23 25 29 32 31 33 33 33 32 31 33 35 35 33 31 30 32 34 34 nan nan nan nan nan nan nan nan nan nan nan nan nan nan nan nan nan nan nan nan nan nan nan nan nan nan nan nan nan
29 33 31 30 30 29 28 27 27 27 27 28 29 31 33 35 37 37 36 34 35 36 38 38 37 37 36 36 34 32 30 34 32 32 30 27 25 26 29 33 34 35 35 38 40 34 30 32 36 37 36 33 32 36 nan nan nan nan nan nan nan nan nan nan nan nan nan nan nan nan nan nan nan nan nan nan nan nan nan nan nan nan nan nan nan
28 33 31 31 31 31 30 30 30 30 32 34 36 39 41 42 40 39 39 37 39 42 42 40 37 38 39 38 36 33 33 34 37 38 36 33 31 31 32 34 35 35 34 37 38 35 33 33 35 40 38 35 37 nan nan nan nan nan nan nan nan nan nan nan nan nan nan nan nan nan nan nan nan nan nan nan nan nan nan nan nan nan nan nan nan
30 31 33 36 42 46 45 40 36 35 37 40 43 44 43 41 39 39 40 40 42 43 43 43 41 41 41 40 37 37 36 35 39 42 41 39 34 30 31 35 36 36 35 34 34 33 36 43 41 42 42 39 nan nan nan nan nan nan nan nan nan nan nan nan nan nan nan nan nan nan nan nan nan nan nan nan nan nan nan nan nan nan nan nan nan
34 33 34 40 45 47 49 48 49 48 46 45 45 45 44 42 40 42 44 44 44 43 43 43 43 42 42 40 43 41 39 37 38 42 45 46 39 32 32 36 39 37 37 37 37 37 37 43 50 47 45 nan nan nan nan nan nan nan nan nan nan nan nan nan nan nan nan nan nan nan nan nan nan nan nan nan nan nan nan nan 38 nan nan nan nan
35 42 48 48 46 48 50 50 50 50 47 46 44 45 43 41 43 44 45 44 44 44 45 45 47 44 42 41 39 38 40 39 38 41 46 50 48 40 38 38 40 43 42 41 43 39 36 nan 51 48 nan nan nan nan nan nan nan nan nan nan nan nan nan nan nan nan nan nan nan nan nan nan nan nan nan nan nan nan nan nan nan nan nan nan nan
39 43 49 51 49 50 48 49 51 51 48 44 41 39 39 41 45 44 46 45 45 46 49 50 51 48 45 44 43 42 40 38 39 43 45 49 52 46 40 42 43 43 42 42 44 39 nan nan nan nan nan nan nan nan nan nan nan nan nan nan nan nan nan nan nan nan nan nan nan nan nan nan nan nan nan nan nan nan nan nan nan nan nan nan nan
39 41 45 50 51 51 51 52 53 52 47 44 46 47 47 48 47 47 47 47 48 49 50 51 51 50 47 46 46 nan nan nan 40 42 42 39 44 49 43 40 42 43 43 45 44 nan nan nan nan nan nan nan nan nan nan nan nan nan nan nan nan nan nan nan nan nan nan nan nan nan nan nan nan nan nan nan nan nan nan nan nan nan nan nan nan
41 41 42 46 49 53 56 56 54 52 49 47 49 49 47 50 50 50 50 50 51 51 49 49 51 51 49 nan nan nan nan nan nan nan nan nan nan nan nan nan nan nan nan nan nan nan nan nan nan nan nan nan nan nan nan nan nan nan nan nan nan nan nan nan nan nan nan nan nan nan nan nan nan nan nan nan nan nan nan nan nan nan nan nan nan
43 44 44 45 48 54 58 58 56 56 54 53 52 51 50 51 52 51 51 53 52 51 50 50 51 51 nan nan nan nan nan nan nan nan nan nan nan nan nan nan nan nan nan nan nan nan nan nan nan nan nan nan nan nan nan nan nan nan nan nan nan nan nan nan nan nan nan nan nan nan nan nan nan nan nan nan nan nan nan nan nan nan nan nan nan
41 40 43 46 50 56 62 62 61 59 57 54 54 52 52 52 53 52 55 56 54 52 50 nan nan nan nan nan nan nan nan nan nan nan nan nan nan nan nan nan nan nan nan nan nan nan nan nan nan nan nan nan nan nan nan nan nan nan nan nan nan nan nan nan nan nan nan nan nan nan nan nan nan nan nan nan nan nan nan nan nan nan nan nan nan
35 34 35 36 40 47 56 60 61 59 58 56 54 51 52 51 52 52 53 54 53 nan nan nan nan nan nan nan nan nan nan nan nan nan nan nan nan nan nan nan nan nan nan nan nan nan nan nan nan nan nan nan nan nan nan nan nan nan nan nan nan nan nan nan nan nan nan nan nan nan nan nan nan nan nan nan nan nan nan nan nan nan nan nan nan
33 33 34 33 34 38 43 47 52 54 56 nan nan nan nan nan nan nan nan nan nan nan nan nan nan nan nan nan nan nan nan nan nan nan nan nan nan nan nan nan nan nan nan nan nan nan nan nan nan nan nan nan nan nan nan nan nan nan nan nan nan nan nan nan nan nan nan nan nan nan nan nan nan nan nan nan nan nan nan nan nan nan nan nan nan
27 30 34 33 32 35 38 45 47 48 nan nan nan nan nan nan nan nan nan nan nan nan nan nan nan nan nan nan nan nan nan nan nan nan nan nan nan nan nan nan nan nan nan nan nan nan nan nan nan nan nan nan nan nan nan nan nan nan nan nan nan nan nan nan nan nan nan nan nan nan nan nan nan nan nan nan nan nan nan nan nan nan nan nan nan
28 31 32 31 29 31 35 35 36 39 nan nan nan nan nan nan nan nan nan nan nan nan nan nan nan nan nan nan nan nan nan nan nan nan nan nan nan nan nan nan nan nan nan nan nan nan nan nan nan nan nan nan nan nan nan nan nan nan nan nan nan nan nan nan nan nan nan nan nan nan nan nan nan nan nan nan nan nan nan nan nan nan nan nan nan
nan nan nan nan nan nan nan nan nan nan nan nan nan nan nan nan nan nan nan nan nan nan nan nan nan nan nan nan nan nan nan nan nan nan nan nan nan nan nan nan nan nan nan nan nan nan nan nan nan nan nan nan nan nan nan nan nan nan nan nan nan nan nan nan nan nan nan nan nan nan nan nan nan nan nan nan nan nan nan nan nan nan nan nan nan
nan nan nan nan nan nan nan nan nan nan nan nan nan nan nan nan nan nan nan nan nan nan nan nan nan nan nan nan nan nan nan nan nan nan nan nan nan nan nan nan nan nan nan nan nan nan nan nan nan nan nan nan nan nan nan nan nan nan nan nan nan nan nan nan nan nan nan nan nan nan nan nan nan nan nan nan nan nan nan nan nan nan nan nan nan
nan nan nan nan nan nan nan nan nan nan nan nan nan nan nan nan nan nan nan nan nan nan nan nan nan nan nan nan nan nan nan nan nan nan nan nan nan nan nan nan nan nan nan nan nan nan nan nan nan nan nan nan nan nan nan nan nan nan nan nan nan nan nan nan nan nan nan nan nan nan nan nan nan nan nan nan nan nan nan nan nan nan nan nan nan
nan nan nan nan nan nan nan nan nan nan nan nan nan nan nan nan nan nan nan nan nan nan nan nan nan nan nan nan nan nan nan nan nan nan nan nan nan nan nan nan nan nan nan nan nan nan nan nan nan nan nan nan nan nan nan nan nan nan nan nan nan nan nan nan nan nan nan nan nan nan nan nan nan nan nan nan nan nan nan nan nan nan nan nan nan
nan nan nan nan nan nan nan nan nan nan nan nan nan nan nan nan nan nan nan nan nan nan nan nan nan nan nan nan nan nan nan nan nan nan nan nan nan nan nan nan nan nan nan nan nan nan nan nan nan nan nan nan nan nan nan nan nan nan nan nan nan nan nan nan nan nan nan nan nan nan nan nan nan nan nan nan nan nan nan nan nan nan nan nan nan
nan nan nan nan nan nan nan nan nan nan nan nan nan nan nan nan nan nan nan nan nan nan nan nan nan nan nan nan nan nan nan nan nan nan nan nan nan nan nan nan nan nan nan nan nan nan nan nan nan nan nan nan nan nan nan nan nan nan nan nan nan nan nan nan nan nan nan nan nan nan nan nan nan nan nan nan nan nan nan nan nan nan nan nan nan
nan nan nan nan nan nan nan nan nan nan nan nan nan nan nan nan nan nan nan nan nan nan nan nan nan nan nan nan nan nan nan nan nan nan nan nan nan nan nan nan nan nan nan nan nan nan nan nan nan nan nan nan nan nan nan nan nan nan nan nan nan nan nan nan nan nan nan nan nan nan nan nan nan nan nan nan nan nan nan nan nan nan nan nan nan
nan nan nan nan nan nan nan nan nan nan nan nan nan nan nan nan nan nan nan nan nan nan nan nan nan nan nan nan nan nan nan nan nan nan nan nan nan nan nan nan nan nan nan nan nan nan nan nan nan nan nan nan nan nan nan nan nan nan nan nan nan nan nan nan nan nan nan nan nan nan nan nan nan nan nan nan nan nan nan nan nan nan nan nan nan
nan nan nan nan nan nan nan nan nan nan nan nan nan nan nan nan nan nan nan nan nan nan nan nan nan nan nan nan nan nan nan nan nan nan nan nan nan nan nan nan nan nan nan nan nan nan nan nan nan nan nan nan nan nan nan nan nan nan nan nan nan nan nan nan nan nan nan nan nan nan nan nan nan nan nan nan nan nan nan nan nan nan nan nan nan
nan nan nan nan nan nan nan nan nan nan nan nan nan nan nan nan nan nan nan nan nan nan nan nan nan nan nan nan nan nan nan nan nan nan nan nan nan nan nan nan nan nan nan nan nan nan nan nan nan nan nan nan nan nan nan nan nan nan nan nan nan nan nan nan nan nan nan nan nan nan nan nan nan nan nan nan nan nan nan nan nan nan nan nan nan
nan nan nan nan nan nan nan nan nan nan nan nan nan nan nan nan nan nan nan nan nan nan nan nan nan nan nan nan nan nan nan nan nan nan nan nan nan nan nan nan nan nan nan nan nan nan nan nan nan nan nan nan nan nan nan nan nan nan nan nan nan nan nan nan nan nan nan nan nan nan nan nan nan nan nan nan nan nan nan nan nan nan nan nan nan
nan nan nan nan nan nan nan nan nan nan nan nan nan nan nan nan nan nan nan nan nan nan nan nan nan nan nan nan nan nan nan nan nan nan nan nan nan nan nan nan nan nan nan nan nan nan nan nan nan nan nan nan nan nan nan nan nan nan nan nan nan nan nan nan nan nan nan nan nan nan nan nan nan nan nan nan nan nan nan nan nan nan nan nan nan
nan nan nan nan nan nan nan nan nan nan nan nan nan nan nan nan nan nan nan nan nan nan nan nan nan nan nan nan nan nan nan nan nan nan nan nan nan nan nan nan nan nan nan nan nan nan nan nan nan nan nan nan nan nan nan nan nan nan nan nan nan nan nan nan nan nan nan nan nan nan nan nan nan nan nan nan nan nan nan nan nan nan nan nan nan
nan nan nan nan nan nan nan nan nan nan nan nan nan nan nan nan nan nan nan nan nan nan nan nan nan nan nan nan nan nan nan nan nan nan nan nan nan nan nan nan nan nan nan nan nan nan nan nan nan nan nan nan nan nan nan nan nan nan nan nan nan nan nan nan nan nan nan nan nan nan nan nan nan nan nan nan nan nan nan nan nan nan nan nan nan
nan nan nan nan nan nan nan nan nan nan nan nan nan nan nan nan nan nan nan nan nan nan nan nan nan nan nan nan nan nan nan nan nan nan nan nan nan nan nan nan nan nan nan nan nan nan nan nan nan nan nan nan nan nan nan nan nan nan nan nan nan nan nan nan nan nan nan nan nan nan nan nan nan nan nan nan nan nan nan nan nan nan nan nan nan
nan nan nan nan nan nan nan nan nan nan nan nan nan nan nan nan nan nan nan nan nan nan nan nan nan nan nan nan nan nan nan nan nan nan nan nan nan nan nan nan nan nan nan nan nan nan nan nan nan nan nan nan nan nan nan nan nan nan nan nan nan nan nan nan nan nan nan nan nan nan nan nan nan nan nan nan nan nan nan nan nan nan nan nan nan
nan nan nan nan nan nan nan nan nan nan nan nan nan nan nan nan nan nan nan nan nan nan nan nan nan nan nan nan nan nan nan nan nan nan nan nan nan nan nan nan nan nan nan nan nan nan nan nan nan nan nan nan nan nan nan nan nan nan nan nan nan nan nan nan nan nan nan nan nan nan nan nan nan nan nan nan nan nan nan nan nan nan nan nan nan
nan nan nan nan nan nan nan nan nan nan nan nan nan nan nan nan nan nan nan nan nan nan nan nan nan nan nan nan nan nan nan nan nan nan nan nan nan nan nan nan nan nan nan nan nan nan nan nan nan nan nan nan nan nan nan nan nan nan nan nan nan nan nan nan nan nan nan nan nan nan nan nan nan nan nan nan nan nan nan nan nan nan nan nan nan
nan nan nan nan nan nan nan nan nan nan nan nan nan nan nan nan nan nan nan nan nan nan nan nan nan nan nan nan nan nan nan nan nan nan nan nan nan nan nan nan nan nan nan nan nan nan nan nan nan nan nan nan nan nan nan nan nan nan nan nan nan nan nan nan nan nan nan nan nan nan nan nan nan nan nan nan nan nan nan nan nan nan nan nan nan
nan nan nan nan nan nan nan nan nan nan nan nan nan nan nan nan nan nan nan nan nan nan nan nan nan nan nan nan nan nan nan nan nan nan nan nan nan nan nan nan nan nan nan nan nan nan nan nan nan nan nan nan nan nan nan nan nan nan nan nan nan nan nan nan nan nan nan nan nan nan nan nan nan nan nan nan nan nan nan nan nan nan nan nan nan
nan nan nan nan nan nan nan nan nan nan nan nan nan nan nan nan nan nan nan nan nan nan nan nan nan nan nan nan nan nan nan nan nan nan nan nan nan nan nan nan nan nan nan nan nan nan nan nan nan nan nan nan nan nan nan nan nan nan nan nan nan nan nan nan nan nan nan nan nan nan nan nan nan nan nan nan nan nan nan nan nan nan nan nan nan
nan nan nan nan nan nan nan nan nan nan nan nan nan nan nan nan nan nan nan nan nan nan nan nan nan nan nan nan nan nan nan nan nan nan nan nan nan nan nan nan nan nan nan nan nan nan nan nan nan nan nan nan nan nan nan nan nan nan nan nan nan nan nan nan nan nan nan nan nan nan nan nan nan nan nan nan nan nan nan nan nan nan nan nan nan
Wind_Direction
232 218 211 200 197 192 189 191 188 193 192 189 187 186 190 193 189 179 185 177 185 185 184 187 194 189 189 198 200 209 214 209 217 213 205 201 174 295 274 283 301 311 303 299 300 302 304 311 312 301 301 308 316 313 312 317 310 314 315 308 309 311 314 316 321 332 320 321 325 326 318 311 317 313 308 310 308 309 312 320 322 323 329 337 340
230 224 217 209 203 198 192 193 194 198 194 192 186 187 192 196 194 194 185 181 191 190 182 193 203 206 217 222 222 228 234 250 262 268 274 284 198 186 281 302 301 300 294 299 298 295 298 303 289 284 287 304 304 306 309 306 304 305 308 307 311 309 311 316 322 319 329 313 316 318 320 313 316 317 308 306 308 309 308 312 317 323 328 336 339
237 233 226 219 210 204 200 197 198 197 193 190 182 184 189 193 202 199 193 192 204 200 212 234 242 249 245 247 250 249 250 243 247 254 244 248 254 250 248 299 307 306 305 312 311 304 304 302 299 293 288 294 300 302 297 299 300 301 301 301 308 312 313 318 318 321 324 323 319 319 319 315 317 321 311 317 325 325 322 317 315 319 320 329 337
240 237 231 228 223 216 210 204 203 199 195 190 185 188 191 193 206 204 203 215 219 229 249 246 241 235 229 221 215 252 279 282 277 280 278 282 296 287 275 293 312 315 316 314 310 307 308 300 300 296 291 291 292 291 292 297 302 304 304 304 307 309 312 316 321 323 317 316 317 318 319 312 319 319 320 321 323 322 322 324 318 316 315 317 323
245 241 238 236 230 227 221 217 212 210 204 202 195 198 198 199 207 209 214 220 232 256 250 253 255 255 253 259 254 246 254 261 264 266 271 271 271 269 276 280 264 268 300 310 306 306 304 303 298 293 291 292 292 295 296 296 301 302 300 297 298 306 308 312 315 316 317 319 316 315 313 314 318 315 313 307 308 314 319 319 313 308 310 309 309
247 247 244 241 234 233 232 227 222 220 217 212 210 208 206 206 207 212 221 219 237 255 261 254 261 265 266 261 262 262 263 264 265 262 263 269 271 271 274 283 291 295 304 303 296 295 296 295 292 293 292 297 300 300 298 299 299 299 301 301 302 304 305 305 306 308 309 312 310 306 306 307 304 309 312 307 307 308 308 309 306 303 296 290 296
249 248 248 246 240 238 238 235 230 226 223 219 217 215 213 212 213 216 225 227 251 255 261 272 259 263 264 262 261 267 267 267 272 274 272 273 280 277 273 276 285 294 298 298 289 284 285 286 288 290 292 296 297 293 293 294 294 295 295 298 299 298 296 296 296 296 299 300 302 306 306 307 308 305 305 303 309 314 314 306 299 297 295 290 280
252 255 254 251 248 245 240 239 236 233 227 224 222 220 219 221 223 225 232 235 253 259 266 271 267 265 267 265 262 262 268 272 275 276 274 277 281 284 279 284 293 297 298 296 290 289 290 287 286 286 288 289 290 287 289 290 290 291 292 295 295 293 293 293 293 293 294 297 298 296 302 301 303 308 306 300 297 299 301 304 301 294 289 292 295
252 257 259 261 261 255 247 241 238 237 235 233 230 227 228 230 233 235 237 242 251 259 262 265 267 266 262 263 259 259 268 276 277 278 277 278 278 281 284 285 288 291 294 294 292 290 285 285 284 287 288 282 281 280 281 284 289 289 291 291 291 291 293 294 293 294 297 298 298 302 302 300 300 300 298 299 298 298 295 295 302 299 298 293 291
245 247 253 258 257 256 255 250 247 246 246 245 243 242 241 243 246 248 248 252 254 259 261 263 268 272 272 269 264 262 263 267 279 294 287 278 278 277 279 284 288 290 292 293 291 286 286 284 284 284 279 278 276 276 275 275 278 284 286 288 288 290 291 293 295 296 296 296 298 297 297 299 297 294 298 301 300 296 290 290 294 296 297 299 300
242 245 245 244 247 251 255 256 257 260 260 259 255 254 254 252 253 256 257 258 261 262 264 268 268 268 274 275 273 267 264 265 283 290 290 287 278 277 281 286 290 292 294 292 289 288 283 281 280 277 278 277 277 274 274 273 274 274 273 275 279 286 290 290 293 291 289 290 294 295 291 285 282 284 288 290 294 292 294 294 294 293 295 292 289
245 244 241 241 243 247 250 253 256 258 259 260 258 254 252 251 251 253 254 257 260 262 266 269 269 268 269 270 269 267 265 262 272 270 272 278 280 280 283 285 287 289 290 290 290 290 286 283 282 285 287 285 282 280 278 276 276 275 276 279 281 nan nan nan nan nan nan nan nan nan nan nan nan nan nan nan nan nan nan 294 292 289 289 290 291
242 241 242 243 244 246 247 248 250 250 250 249 248 248 251 251 251 250 254 256 259 265 268 266 266 265 266 269 266 258 257 248 247 249 252 257 269 275 279 280 284 286 283 281 286 287 286 284 283 279 280 277 280 283 284 284 279 277 278 nan nan nan nan nan nan nan nan nan nan nan nan nan nan nan nan nan nan nan nan nan nan nan 290 288 288
229 240 243 243 244 246 248 250 249 248 247 246 246 247 247 250 250 250 250 251 256 260 260 260 256 255 255 255 255 253 255 245 245 248 251 252 254 262 273 274 268 270 277 279 276 278 282 285 283 279 276 277 279 280 282 283 284 284 nan nan nan nan nan nan nan nan nan nan nan nan nan nan nan nan nan nan nan nan nan nan nan nan nan nan nan
236 234 241 244 245 246 249 252 252 249 249 250 249 248 248 246 247 245 244 243 241 240 242 247 249 249 248 250 252 251 250 240 246 249 253 256 258 263 266 270 272 271 265 262 263 269 273 278 279 278 276 275 276 280 282 283 nan nan nan nan nan nan nan nan nan nan nan nan nan nan nan nan nan nan nan nan nan nan nan nan nan nan nan nan nan
241 238 235 242 246 249 252 251 249 249 251 250 250 247 244 244 243 243 244 245 247 246 241 241 243 247 249 249 252 252 251 243 246 249 252 257 268 270 269 270 275 278 275 271 269 265 267 269 272 273 273 272 270 275 nan nan nan nan nan nan nan nan nan nan nan nan nan nan nan nan nan nan nan nan nan nan nan nan nan nan nan nan nan nan nan
246 247 242 235 239 245 251 252 247 246 247 249 247 247 248 248 247 248 248 245 243 242 244 244 246 249 251 252 254 254 252 246 249 250 250 249 262 267 270 271 272 272 272 273 274 274 272 270 271 273 274 272 274 nan nan nan nan nan nan nan nan nan nan nan nan nan nan nan nan nan nan nan nan nan nan nan nan nan nan nan nan nan nan nan nan
243 245 247 245 240 235 228 230 238 246 247 248 248 248 250 249 251 253 254 250 246 247 248 247 244 246 248 251 253 257 255 247 249 254 254 252 255 264 271 274 274 275 275 273 275 276 278 279 276 275 275 274 nan nan nan nan nan nan nan nan nan nan nan nan nan nan nan nan nan nan nan nan nan nan nan nan nan nan nan nan nan nan nan nan nan
250 249 246 244 244 247 247 239 228 228 232 240 250 252 251 250 247 247 250 251 249 249 251 253 253 252 252 252 253 255 255 251 247 253 256 255 257 259 263 273 277 274 272 270 267 268 270 276 276 276 275 nan nan nan nan nan nan nan nan nan nan nan nan nan nan nan nan nan nan nan nan nan nan nan nan nan nan nan nan nan 284 nan nan nan nan
249 244 238 236 237 243 250 250 244 240 237 231 235 245 243 243 245 246 247 249 249 249 251 254 257 257 255 253 252 252 255 256 253 249 254 255 255 258 258 261 264 267 265 263 262 261 265 nan 270 273 nan nan nan nan nan nan nan nan nan nan nan nan nan nan nan nan nan nan nan nan nan nan nan nan nan nan nan nan nan nan nan nan nan nan nan
246 247 248 246 243 240 241 249 251 248 242 240 244 250 247 244 247 250 251 249 250 250 251 253 255 256 254 252 251 252 255 255 254 253 254 258 258 257 259 259 258 260 262 261 263 265 nan nan nan nan nan nan nan nan nan nan nan nan nan nan nan nan nan nan nan nan nan nan nan nan nan nan nan nan nan nan nan nan nan nan nan nan nan nan nan
245 249 252 252 249 246 245 245 248 247 242 238 239 241 242 245 249 251 250 250 250 251 253 255 257 257 257 256 254 nan nan nan 260 253 250 252 259 263 259 258 257 255 258 265 264 nan nan nan nan nan nan nan nan nan nan nan nan nan nan nan nan nan nan nan nan nan nan nan nan nan nan nan nan nan nan nan nan nan nan nan nan nan nan nan nan
249 250 254 256 255 251 246 246 247 247 244 242 245 246 246 248 249 251 254 253 252 253 256 259 259 256 255 nan nan nan nan nan nan nan nan nan nan nan nan nan nan nan nan nan nan nan nan nan nan nan nan nan nan nan nan nan nan nan nan nan nan nan nan nan nan nan nan nan nan nan nan nan nan nan nan nan nan nan nan nan nan nan nan nan nan
249 250 252 253 253 252 251 249 249 247 245 245 247 249 248 249 249 250 253 256 257 257 259 260 258 255 nan nan nan nan nan nan nan nan nan nan nan nan nan nan nan nan nan nan nan nan nan nan nan nan nan nan nan nan nan nan nan nan nan nan nan nan nan nan nan nan nan nan nan nan nan nan nan nan nan nan nan nan nan nan nan nan nan nan nan
251 251 254 257 257 255 252 251 251 249 245 246 249 249 248 250 251 251 253 256 258 260 261 nan nan nan nan nan nan nan nan nan nan nan nan nan nan nan nan nan nan nan nan nan nan nan nan nan nan nan nan nan nan nan nan nan nan nan nan nan nan nan nan nan nan nan nan nan nan nan nan nan nan nan nan nan nan nan nan nan nan nan nan nan nan
250 254 256 256 254 254 252 250 250 250 248 246 248 249 251 252 253 251 252 255 257 nan nan nan nan nan nan nan nan nan nan nan nan nan nan nan nan nan nan nan nan nan nan nan nan nan nan nan nan nan nan nan nan nan nan nan nan nan nan nan nan nan nan nan nan nan nan nan nan nan nan nan nan nan nan nan nan nan nan nan nan nan nan nan nan
248 253 257 255 251 250 251 250 250 249 249 nan nan nan nan nan nan nan nan nan nan nan nan nan nan nan nan nan nan nan nan nan nan nan nan nan nan nan nan nan nan nan nan nan nan nan nan nan nan nan nan nan nan nan nan nan nan nan nan nan nan nan nan nan nan nan nan nan nan nan nan nan nan nan nan nan nan nan nan nan nan nan nan nan nan
249 256 259 258 254 253 254 254 250 246 nan nan nan nan nan nan nan nan nan nan nan nan nan nan nan nan nan nan nan nan nan nan nan nan nan nan nan nan nan nan nan nan nan nan nan nan nan nan nan nan nan nan nan nan nan nan nan nan nan nan nan nan nan nan nan nan nan nan nan nan nan nan nan nan nan nan nan nan nan nan nan nan nan nan nan
238 238 243 249 250 249 248 243 238 238 nan nan nan nan nan nan nan nan nan nan nan nan nan nan nan nan nan nan nan nan nan nan nan nan nan nan nan nan nan nan nan nan nan nan nan nan nan nan nan nan nan nan nan nan nan nan nan nan nan nan nan nan nan nan nan nan nan nan nan nan nan nan nan nan nan nan nan nan nan nan nan nan nan nan nan
nan nan nan nan nan nan nan nan nan nan nan nan nan nan nan nan nan nan nan nan nan nan nan nan nan nan nan nan nan nan nan nan nan nan nan nan nan nan nan nan nan nan nan nan nan nan nan nan nan nan nan nan nan nan nan nan nan nan nan nan nan nan nan nan nan nan nan nan nan nan nan nan nan nan nan nan nan nan nan nan nan nan nan nan nan
nan nan nan nan nan nan nan nan nan nan nan nan nan nan nan nan nan nan nan nan nan nan nan nan nan nan nan nan nan nan nan nan nan nan nan nan nan nan nan nan nan nan nan nan nan nan nan nan nan nan nan nan nan nan nan nan nan nan nan nan nan nan nan nan nan nan nan nan nan nan nan nan nan nan nan nan nan nan nan nan nan nan nan nan nan
nan nan nan nan nan nan nan nan nan nan nan nan nan nan nan nan nan nan nan nan nan nan nan nan nan nan nan nan nan nan nan nan nan nan nan nan nan nan nan nan nan nan nan nan nan nan nan nan nan nan nan nan nan nan nan nan nan nan nan nan nan nan nan nan nan nan nan nan nan nan nan nan nan nan nan nan nan nan nan nan nan nan nan nan nan
nan nan nan nan nan nan nan nan nan nan nan nan nan nan nan nan nan nan nan nan nan nan nan nan nan nan nan nan nan nan nan nan nan nan nan nan nan nan nan nan nan nan nan nan nan nan nan nan nan nan nan nan nan nan nan nan nan nan nan nan nan nan nan nan nan nan nan nan nan nan nan nan nan nan nan nan nan nan nan nan nan nan nan nan nan
nan nan nan nan nan nan nan nan nan nan nan nan nan nan nan nan nan nan nan nan nan nan nan nan nan nan nan nan nan nan nan nan nan nan nan nan nan nan nan nan nan nan nan nan nan nan nan nan nan nan nan nan nan nan nan nan nan nan nan nan nan nan nan nan nan nan nan nan nan nan nan nan nan nan nan nan nan nan nan nan nan nan nan nan nan
nan nan nan nan nan nan nan nan nan nan nan nan nan nan nan nan nan nan nan nan nan nan nan nan nan nan nan nan nan nan nan nan nan nan nan nan nan nan nan nan nan nan nan nan nan nan nan nan nan nan nan nan nan nan nan nan nan nan nan nan nan nan nan nan nan nan nan nan nan nan nan nan nan nan nan nan nan nan nan nan nan nan nan nan nan
nan nan nan nan nan nan nan nan nan nan nan nan nan nan nan nan nan nan nan nan nan nan nan nan nan nan nan nan nan nan nan nan nan nan nan nan nan nan nan nan nan nan nan nan nan nan nan nan nan nan nan nan nan nan nan nan nan nan nan nan nan nan nan nan nan nan nan nan nan nan nan nan nan nan nan nan nan nan nan nan nan nan nan nan nan
nan nan nan nan nan nan nan nan nan nan nan nan nan nan nan nan nan nan nan nan nan nan nan nan nan nan nan nan nan nan nan nan nan nan nan nan nan nan nan nan nan nan nan nan nan nan nan nan nan nan nan nan nan nan nan nan nan nan nan nan nan nan nan nan nan nan nan nan nan nan nan nan nan nan nan nan nan nan nan nan nan nan nan nan nan
nan nan nan nan nan nan nan nan nan nan nan nan nan nan nan nan nan nan nan nan nan nan nan nan nan nan nan nan nan nan nan nan nan nan nan nan nan nan nan nan nan nan nan nan nan nan nan nan nan nan nan nan nan nan nan nan nan nan nan nan nan nan nan nan nan nan nan nan nan nan nan nan nan nan nan nan nan nan nan nan nan nan nan nan nan
nan nan nan nan nan nan nan nan nan nan nan nan nan nan nan nan nan nan nan nan nan nan nan nan nan nan nan nan nan nan nan nan nan nan nan nan nan nan nan nan nan nan nan nan nan nan nan nan nan nan nan nan nan nan nan nan nan nan nan nan nan nan nan nan nan nan nan nan nan nan nan nan nan nan nan nan nan nan nan nan nan nan nan nan nan
nan nan nan nan nan nan nan nan nan nan nan nan nan nan nan nan nan nan nan nan nan nan nan nan nan nan nan nan nan nan nan nan nan nan nan nan nan nan nan nan nan nan nan nan nan nan nan nan nan nan nan nan nan nan nan nan nan nan nan nan nan nan nan nan nan nan nan nan nan nan nan nan nan nan nan nan nan nan nan nan nan nan nan nan nan
nan nan nan nan nan nan nan nan nan nan nan nan nan nan nan nan nan nan nan nan nan nan nan nan nan nan nan nan nan nan nan nan nan nan nan nan nan nan nan nan nan nan nan nan nan nan nan nan nan nan nan nan nan nan nan nan nan nan nan nan nan nan nan nan nan nan nan nan nan nan nan nan nan nan nan nan nan nan nan nan nan nan nan nan nan
nan nan nan nan nan nan nan nan nan nan nan nan nan nan nan nan nan nan nan nan nan nan nan nan nan nan nan nan nan nan nan nan nan nan nan nan nan nan nan nan nan nan nan nan nan nan nan nan nan nan nan nan nan nan nan nan nan nan nan nan nan nan nan nan nan nan nan nan nan nan nan nan nan nan nan nan nan nan nan nan nan nan nan nan nan
nan nan nan nan nan nan nan nan nan nan nan nan nan nan nan nan nan nan nan nan nan nan nan nan nan nan nan nan nan nan nan nan nan nan nan nan nan nan nan nan nan nan nan nan nan nan nan nan nan nan nan nan nan nan nan nan nan nan nan nan nan nan nan nan nan nan nan nan nan nan nan nan nan nan nan nan nan nan nan nan nan nan nan nan nan
nan nan nan nan nan nan nan nan nan nan nan nan nan nan nan nan nan nan nan nan nan nan nan nan nan nan nan nan nan nan nan nan nan nan nan nan nan nan nan nan nan nan nan nan nan nan nan nan nan nan nan nan nan nan nan nan nan nan nan nan nan nan nan nan nan nan nan nan nan nan nan nan nan nan nan nan nan nan nan nan nan nan nan nan nan
nan nan nan nan nan nan nan nan nan nan nan nan nan nan nan nan nan nan nan nan nan nan nan nan nan nan nan nan nan nan nan nan nan nan nan nan nan nan nan nan nan nan nan nan nan nan nan nan nan nan nan nan nan nan nan nan nan nan nan nan nan nan nan nan nan nan nan nan nan nan nan nan nan nan nan nan nan nan nan nan nan nan nan nan nan
nan nan nan nan nan nan nan nan nan nan nan nan nan nan nan nan nan nan nan nan nan nan nan nan nan nan nan nan nan nan nan nan nan nan nan nan nan nan nan nan nan nan nan nan nan nan nan nan nan nan nan nan nan nan nan nan nan nan nan nan nan nan nan nan nan nan nan nan nan nan nan nan nan nan nan nan nan nan nan nan nan nan nan nan nan
nan nan nan nan nan nan nan nan nan nan nan nan nan nan nan nan nan nan nan nan nan nan nan nan nan nan nan nan nan nan nan nan nan nan nan nan nan nan nan nan nan nan nan nan nan nan nan nan nan nan nan nan nan nan nan nan nan nan nan nan nan nan nan nan nan nan nan nan nan nan nan nan nan nan nan nan nan nan nan nan nan nan nan nan nan
nan nan nan nan nan nan nan nan nan nan nan nan nan nan nan nan nan nan nan nan nan nan nan nan nan nan nan nan nan nan nan nan nan nan nan nan nan nan nan nan nan nan nan nan nan nan nan nan nan nan nan nan nan nan nan nan nan nan nan nan nan nan nan nan nan nan nan nan nan nan nan nan nan nan nan nan nan nan nan nan nan nan nan nan nan
nan nan nan nan nan nan nan nan nan nan nan nan nan nan nan nan nan nan nan nan nan nan nan nan nan nan nan nan nan nan nan nan nan nan nan nan nan nan nan nan nan nan nan nan nan nan nan nan nan nan nan nan nan nan nan nan nan nan nan nan nan nan nan nan nan nan nan nan nan nan nan nan nan nan nan nan nan nan nan nan nan nan nan nan nan
nan nan nan nan nan nan nan nan nan nan nan nan nan nan nan nan nan nan nan nan nan nan nan nan nan nan nan nan nan nan nan nan nan nan nan nan nan nan nan nan nan nan nan nan nan nan nan nan nan nan nan nan nan nan nan nan nan nan nan nan nan nan nan nan nan nan nan nan nan nan nan nan nan nan nan nan nan nan nan nan nan nan nan nan nan
nan nan nan nan nan nan nan nan nan nan nan nan nan nan nan nan nan nan nan nan nan nan nan nan nan nan nan nan nan nan nan nan nan nan nan nan nan nan nan nan nan nan nan nan nan nan nan nan nan nan nan nan nan nan nan nan nan nan nan nan nan nan nan nan nan nan nan nan nan nan nan nan nan nan nan nan nan nan nan nan nan nan nan nan nan